| time (UTC) | temp C | wind direction | speed KPH | gust KPH | rain 1hr cm | rain 24hr cm | rain mn cm | humidity % | barometer mb |
| 20260507143002 | 10 | 261 | 17.7 | 35.4 | 0.00 | 0.00 | 0.00 | 63 | 1016.3 |
| 20260507142502 | 9 | 283 | 27.4 | 37.0 | 0.00 | 0.00 | 0.00 | 64 | 1016.2 |
| 20260507142002 | 9 | 287 | 14.5 | 40.2 | 0.00 | 0.00 | 0.00 | 62 | 1016.4 |
| 20260507141501 | 8 | 275 | 30.6 | 37.0 | 0.00 | 0.00 | 0.00 | 62 | 1016.2 |
| 20260507141002 | 9 | 289 | 32.2 | 32.2 | 0.00 | 0.00 | 0.00 | 63 | 1016.2 |
| 20260507140501 | 9 | 344 | 17.7 | 30.6 | 0.00 | 0.00 | 0.00 | 67 | 1016.3 |
| 20260507140002 | 8 | 284 | 14.5 | 27.4 | 0.00 | 0.00 | 0.00 | 66 | 1016.2 |
| 20260507135502 | 8 | 278 | 12.9 | 25.7 | 0.00 | 0.00 | 0.00 | 67 | 1016.1 |
| 20260507135001 | 8 | 295 | 11.3 | 32.2 | 0.00 | 0.00 | 0.00 | 71 | 1016.2 |
| 20260507134502 | 8 | 283 | 12.9 | 30.6 | 0.00 | 0.00 | 0.00 | 72 | 1016.4 |
| 20260507134001 | 8 | 289 | 24.1 | 32.2 | 0.00 | 0.00 | 0.00 | 72 | 1016.3 |
| 20260507133502 | 8 | 291 | 29.0 | 29.0 | 0.00 | 0.00 | 0.00 | 74 | 1016.4 |
| 20260507133001 | 8 | 286 | 22.5 | 30.6 | 0.00 | 0.00 | 0.00 | 73 | 1016.4 |
| 20260507132501 | 7 | 284 | 19.3 | 30.6 | 0.00 | 0.00 | 0.00 | 71 | 1016.3 |
| 20260507132002 | 7 | 282 | 12.9 | 29.0 | 0.00 | 0.00 | 0.00 | 72 | 1016.2 |
| 20260507131502 | 7 | 292 | 24.1 | 30.6 | 0.00 | 0.00 | 0.00 | 75 | 1016.3 |
| 20260507131002 | 7 | 275 | 16.1 | 30.6 | 0.00 | 0.00 | 0.00 | 75 | 1016.2 |
| 20260507130501 | 7 | 294 | 19.3 | 30.6 | 0.00 | 0.00 | 0.00 | 74 | 1016.4 |
| 20260507130002 | 7 | 296 | 6.4 | 25.7 | 0.00 | 0.00 | 0.00 | 74 | 1016.4 |
| 20260507125502 | 7 | 298 | 22.5 | 27.4 | 0.00 | 0.00 | 0.00 | 76 | 1016.2 |
| 20260507125002 | 7 | 278 | 19.3 | 27.4 | 0.00 | 0.00 | 0.00 | 76 | 1016.4 |
| 20260507124502 | 6 | 308 | 19.3 | 19.3 | 0.00 | 0.00 | 0.00 | 77 | 1016.4 |
| 20260507124001 | 6 | 285 | 17.7 | 24.1 | 0.00 | 0.00 | 0.00 | 77 | 1016.4 |
| 20260507123502 | 6 | 301 | 16.1 | 20.9 | 0.00 | 0.00 | 0.00 | 79 | 1016.3 |
| 20260507123002 | 6 | 265 | 19.3 | 24.1 | 0.00 | 0.00 | 0.00 | 81 | 1016.4 |
| 20260507122502 | 6 | 274 | 12.9 | 22.5 | 0.00 | 0.00 | 0.00 | 80 | 1016.3 |
| 20260507122001 | 6 | 273 | 12.9 | 16.1 | 0.00 | 0.00 | 0.00 | 81 | 1016.4 |
| 20260507121501 | 6 | 288 | 19.3 | 20.9 | 0.00 | 0.00 | 0.00 | 80 | 1016.3 |
| 20260507121002 | 5 | 279 | 14.5 | 20.9 | 0.00 | 0.00 | 0.00 | 81 | 1016.2 |
| 20260507120502 | 5 | 291 | 17.7 | 24.1 | 0.00 | 0.00 | 0.00 | 80 | 1016.2 |
| 20260507120003 | 5 | 276 | 14.5 | 22.5 | 0.00 | 0.00 | 0.00 | 82 | 1016.3 |
| 20260507115502 | 5 | 280 | 14.5 | 17.7 | 0.00 | 0.00 | 0.00 | 81 | 1016.5 |
| 20260507115001 | 5 | 271 | 12.9 | 20.9 | 0.00 | 0.00 | 0.00 | 82 | 1016.4 |
| 20260507114502 | 5 | 276 | 11.3 | 25.7 | 0.00 | 0.00 | 0.00 | 82 | 1016.3 |
| 20260507114001 | 5 | 273 | 11.3 | 19.3 | 0.00 | 0.00 | 0.00 | 83 | 1016.4 |
| 20260507113502 | 5 | 271 | 12.9 | 19.3 | 0.00 | 0.00 | 0.00 | 84 | 1016.2 |
| 20260507113002 | 5 | 267 | 11.3 | 14.5 | 0.00 | 0.00 | 0.00 | 85 | 1016.1 |
| 20260507112501 | 4 | 266 | 8.0 | 14.5 | 0.00 | 0.00 | 0.00 | 86 | 1016.0 |
| 20260507112002 | 4 | 262 | 6.4 | 12.9 | 0.00 | 0.00 | 0.00 | 88 | 1015.9 |
| 20260507111502 | 4 | 274 | 9.7 | 11.3 | 0.00 | 0.00 | 0.00 | 89 | 1016.0 |
| 20260507111002 | 3 | 257 | 4.8 | 9.7 | 0.00 | 0.00 | 0.00 | 89 | 1015.9 |
| 20260507110502 | 3 | 254 | 6.4 | 9.7 | 0.00 | 0.00 | 0.00 | 89 | 1015.9 |
| 20260507110002 | 3 | 254 | 6.4 | 8.0 | 0.00 | 0.00 | 0.00 | 88 | 1015.8 |
| 20260507105501 | 3 | 261 | 8.0 | 11.3 | 0.00 | 0.00 | 0.00 | 88 | 1015.5 |
| 20260507105002 | 3 | 269 | 8.0 | 12.9 | 0.00 | 0.00 | 0.00 | 87 | 1015.6 |
| 20260507104501 | 3 | 262 | 8.0 | 11.3 | 0.00 | 0.00 | 0.00 | 87 | 1015.5 |
| 20260507104002 | 3 | 258 | 11.3 | 12.9 | 0.00 | 0.00 | 0.00 | 87 | 1015.6 |
| 20260507103502 | 3 | 256 | 8.0 | 11.3 | 0.00 | 0.00 | 0.00 | 88 | 1015.9 |
| 20260507103002 | 3 | 254 | 8.0 | 11.3 | 0.00 | 0.00 | 0.00 | 91 | 1016.0 |
| 20260507102501 | 2 | 257 | 6.4 | 9.7 | 0.00 | 0.00 | 0.00 | 92 | 1015.6 |
| 20260507102002 | 2 | 263 | 4.8 | 8.0 | 0.00 | 0.00 | 0.00 | 93 | 1015.6 |
| 20260507101501 | 2 | 245 | 6.4 | 8.0 | 0.00 | 0.00 | 0.00 | 93 | 1015.5 |
| 20260507101002 | 2 | 250 | 6.4 | 8.0 | 0.00 | 0.00 | 0.00 | 93 | 1015.6 |
| 20260507100501 | 2 | 257 | 4.8 | 8.0 | 0.00 | 0.00 | 0.00 | 93 | 1015.7 |
| 20260507100002 | 2 | 276 | 3.2 | 8.0 | 0.00 | 0.00 | 0.00 | 93 | 1015.7 |
| 20260507095502 | 2 | 266 | 4.8 | 8.0 | 0.00 | 0.00 | 0.00 | 92 | 1015.4 |
| 20260507095002 | 2 | 273 | 4.8 | 8.0 | 0.00 | 0.00 | 0.00 | 93 | 1015.5 |
| 20260507094502 | 2 | 260 | 4.8 | 6.4 | 0.00 | 0.00 | 0.00 | 92 | 1015.6 |
| 20260507094002 | 2 | 258 | 4.8 | 6.4 | 0.00 | 0.00 | 0.00 | 91 | 1015.5 |
| 20260507093501 | 2 | 241 | 6.4 | 6.4 | 0.00 | 0.00 | 0.00 | 90 | 1015.5 |
| 20260507093002 | 3 | 247 | 6.4 | 8.0 | 0.00 | 0.00 | 0.00 | 89 | 1015.7 |
| 20260507092502 | 3 | 249 | 6.4 | 9.7 | 0.00 | 0.00 | 0.00 | 90 | 1015.7 |
| 20260507092002 | 2 | 258 | 3.2 | 8.0 | 0.00 | 0.00 | 0.00 | 91 | 1015.5 |
| 20260507091502 | 2 | 218 | 0.0 | 4.8 | 0.00 | 0.00 | 0.00 | 90 | 1015.6 |
| 20260507091002 | 3 | 240 | 3.2 | 8.0 | 0.00 | 0.00 | 0.00 | 89 | 1015.5 |
| 20260507090501 | 3 | 241 | 4.8 | 9.7 | 0.00 | 0.00 | 0.00 | 86 | 1015.4 |
| 20260507090002 | 4 | 268 | 6.4 | 11.3 | 0.00 | 0.00 | 0.00 | 84 | 1015.5 |
| 20260507085501 | 4 | 266 | 9.7 | 14.5 | 0.00 | 0.00 | 0.00 | 84 | 1015.4 |
| 20260507085002 | 4 | 255 | 8.0 | 14.5 | 0.00 | 0.00 | 0.00 | 84 | 1015.6 |
| 20260507084502 | 3 | 266 | 4.8 | 11.3 | 0.00 | 0.00 | 0.00 | 86 | 1015.5 |
| 20260507084002 | 3 | 261 | 6.4 | 12.9 | 0.00 | 0.00 | 0.00 | 86 | 1015.4 |
| 20260507083501 | 3 | 263 | 3.2 | 6.4 | 0.00 | 0.00 | 0.00 | 89 | 1015.4 |
| 20260507083002 | 3 | 253 | 4.8 | 6.4 | 0.00 | 0.00 | 0.00 | 88 | 1015.5 |
| 20260507082501 | 3 | 263 | 6.4 | 6.4 | 0.00 | 0.00 | 0.00 | 88 | 1015.3 |
| 20260507082002 | 3 | 262 | 4.8 | 8.0 | 0.00 | 0.00 | 0.00 | 87 | 1015.2 |
| 20260507081502 | 4 | 267 | 4.8 | 8.0 | 0.00 | 0.00 | 0.00 | 85 | 1015.4 |
| 20260507081002 | 5 | 261 | 6.4 | 11.3 | 0.00 | 0.00 | 0.00 | 83 | 1015.5 |
| 20260507080502 | 5 | 261 | 4.8 | 12.9 | 0.00 | 0.00 | 0.00 | 82 | 1015.4 |
| 20260507080002 | 5 | 265 | 8.0 | 14.5 | 0.00 | 0.00 | 0.00 | 82 | 1015.5 |
| 20260507075501 | 5 | 262 | 9.7 | 16.1 | 0.00 | 0.00 | 0.00 | 82 | 1015.6 |
| 20260507075002 | 5 | 283 | 8.0 | 11.3 | 0.00 | 0.00 | 0.00 | 83 | 1015.3 |
| 20260507074501 | 5 | 268 | 6.4 | 11.3 | 0.00 | 0.00 | 0.00 | 82 | 1015.4 |
| 20260507074002 | 5 | 262 | 11.3 | 14.5 | 0.00 | 0.00 | 0.00 | 81 | 1015.4 |
| 20260507073502 | 6 | 280 | 9.7 | 16.1 | 0.00 | 0.00 | 0.00 | 80 | 1015.6 |
| 20260507073001 | 6 | 267 | 17.7 | 17.7 | 0.00 | 0.00 | 0.00 | 81 | 1015.5 |
| 20260507072501 | 6 | 280 | 9.7 | 17.7 | 0.00 | 0.00 | 0.00 | 80 | 1015.4 |
| 20260507072002 | 5 | 266 | 12.9 | 17.7 | 0.00 | 0.00 | 0.00 | 81 | 1015.5 |
| 20260507071502 | 5 | 274 | 8.0 | 14.5 | 0.00 | 0.00 | 0.00 | 84 | 1015.4 |
| 20260507071002 | 5 | 269 | 8.0 | 12.9 | 0.00 | 0.00 | 0.00 | 86 | 1015.3 |
| 20260507070503 | 4 | 263 | 6.4 | 9.7 | 0.00 | 0.00 | 0.00 | 87 | 1015.4 |
| 20260507070003 | 4 | 272 | 6.4 | 8.0 | 0.00 | 0.00 | 0.00 | 88 | 1015.5 |
| 20260507065501 | 4 | 264 | 4.8 | 9.7 | 0.00 | 0.00 | 0.00 | 89 | 1015.6 |
| 20260507065002 | 4 | 245 | 8.0 | 9.7 | 0.00 | 0.00 | 0.00 | 90 | 1015.4 |
| 20260507064501 | 4 | 247 | 6.4 | 9.7 | 0.00 | 0.00 | 0.00 | 90 | 1015.6 |
| 20260507064002 | 4 | 243 | 6.4 | 8.0 | 0.00 | 0.00 | 0.00 | 90 | 1015.5 |
| 20260507063502 | 3 | 261 | 4.8 | 9.7 | 0.00 | 0.00 | 0.00 | 91 | 1015.6 |
| 20260507063001 | 3 | 253 | 6.4 | 9.7 | 0.00 | 0.00 | 0.00 | 92 | 1015.6 |
| 20260507062502 | 3 | 250 | 4.8 | 6.4 | 0.00 | 0.00 | 0.00 | 93 | 1015.7 |
| 20260507062001 | 3 | 252 | 4.8 | 4.8 | 0.00 | 0.00 | 0.00 | 92 | 1015.6 |
| 20260507061502 | 3 | 230 | 4.8 | 6.4 | 0.00 | 0.00 | 0.00 | 93 | 1015.6 |
| 20260507061002 | 3 | 224 | 3.2 | 4.8 | 0.00 | 0.00 | 0.00 | 93 | 1015.7 |
| 20260507060502 | 3 | 211 | 0.0 | 3.2 | 0.00 | 0.00 | 0.00 | 92 | 1015.7 |
| 20260507060002 | 4 | 252 | 3.2 | 4.8 | 0.00 | 0.00 | 0.00 | 91 | 1015.5 |
| 20260507055502 | 4 | 251 | 3.2 | 4.8 | 0.00 | 0.00 | 0.00 | 90 | 1015.6 |
| 20260507055001 | 5 | 258 | 4.8 | 6.4 | 0.00 | 0.00 | 0.00 | 89 | 1015.6 |
| 20260507054502 | 5 | 262 | 6.4 | 8.0 | 0.00 | 0.00 | 0.00 | 88 | 1015.6 |
| 20260507054002 | 5 | 271 | 8.0 | 9.7 | 0.00 | 0.00 | 0.00 | 88 | 1015.6 |
| 20260507053501 | 5 | 271 | 6.4 | 8.0 | 0.00 | 0.00 | 0.00 | 89 | 1015.6 |
| 20260507053003 | 5 | 274 | 4.8 | 8.0 | 0.00 | 0.00 | 0.00 | 90 | 1015.8 |
| 20260507052502 | 5 | 265 | 4.8 | 8.0 | 0.00 | 0.00 | 0.00 | 89 | 1015.8 |
| 20260507052002 | 5 | 272 | 4.8 | 6.4 | 0.00 | 0.00 | 0.00 | 89 | 1015.7 |
| 20260507051502 | 5 | 268 | 6.4 | 8.0 | 0.00 | 0.00 | 0.00 | 87 | 1015.7 |
| 20260507051001 | 5 | 267 | 6.4 | 8.0 | 0.00 | 0.00 | 0.00 | 88 | 1015.6 |
| 20260507050502 | 6 | 272 | 8.0 | 8.0 | 0.00 | 0.00 | 0.00 | 88 | 1015.7 |
| 20260507050002 | 5 | 271 | 6.4 | 8.0 | 0.00 | 0.00 | 0.00 | 88 | 1015.7 |
| 20260507045501 | 5 | 272 | 4.8 | 6.4 | 0.00 | 0.00 | 0.00 | 89 | 1015.7 |
| 20260507045002 | 5 | 267 | 4.8 | 6.4 | 0.00 | 0.00 | 0.00 | 87 | 1015.6 |
| 20260507044502 | 6 | 273 | 4.8 | 6.4 | 0.00 | 0.00 | 0.00 | 88 | 1015.6 |
| 20260507044002 | 5 | 267 | 4.8 | 6.4 | 0.00 | 0.00 | 0.00 | 90 | 1015.5 |
| 20260507043502 | 6 | 240 | 0.0 | 4.8 | 0.00 | 0.00 | 0.00 | 90 | 1015.5 |
| 20260507043002 | 6 | 247 | 3.2 | 6.4 | 0.00 | 0.00 | 0.00 | 89 | 1015.6 |
| 20260507042502 | 6 | 269 | 4.8 | 6.4 | 0.00 | 0.00 | 0.00 | 90 | 1015.6 |
| 20260507042001 | 5 | 292 | 4.8 | 4.8 | 0.00 | 0.00 | 0.00 | 92 | 1015.7 |
| 20260507041501 | 6 | 258 | 3.2 | 4.8 | 0.00 | 0.00 | 0.00 | 91 | 1015.5 |
| 20260507041002 | 6 | 242 | 3.2 | 4.8 | 0.00 | 0.00 | 0.00 | 90 | 1015.7 |
| 20260507040502 | 6 | 267 | 3.2 | 4.8 | 0.00 | 0.00 | 0.00 | 91 | 1015.6 |
| 20260507040001 | 5 | 266 | 3.2 | 4.8 | 0.00 | 0.74 | 0.74 | 92 | 1015.7 |
| 20260507035502 | 5 | 303 | 3.2 | 3.2 | 0.00 | 0.74 | 0.74 | 92 | 1015.7 |
| 20260507035001 | 5 | 258 | 0.0 | 3.2 | 0.00 | 0.74 | 0.74 | 89 | 1015.5 |
| 20260507034502 | 6 | 251 | 3.2 | 4.8 | 0.00 | 0.74 | 0.74 | 88 | 1015.6 |
| 20260507034002 | 6 | 249 | 3.2 | 3.2 | 0.00 | 0.74 | 0.74 | 85 | 1015.6 |
| 20260507033501 | 7 | 245 | 0.0 | 3.2 | 0.00 | 0.74 | 0.74 | 86 | 1015.4 |
| 20260507033001 | 7 | 347 | 3.2 | 4.8 | 0.00 | 0.74 | 0.74 | 84 | 1015.5 |
| 20260507032502 | 8 | 198 | 6.4 | 6.4 | 0.00 | 0.74 | 0.74 | 81 | 1015.6 |
| 20260507032001 | 7 | 261 | 3.2 | 4.8 | 0.00 | 0.74 | 0.74 | 82 | 1015.6 |
| 20260507031502 | 7 | 12 | 6.4 | 12.9 | 0.00 | 0.74 | 0.74 | 85 | 1015.5 |
| 20260507031002 | 7 | 261 | 6.4 | 9.7 | 0.00 | 0.74 | 0.74 | 83 | 1015.6 |
| 20260507030502 | 7 | 14 | 9.7 | 12.9 | 0.00 | 0.74 | 0.74 | 89 | 1015.5 |
| 20260507030003 | 7 | 263 | 6.4 | 6.4 | 0.00 | 0.74 | 0.74 | 89 | 1015.6 |
| 20260507025501 | 7 | 272 | 3.2 | 6.4 | 0.00 | 0.74 | 0.74 | 89 | 1015.6 |
| 20260507025002 | 7 | 264 | 4.8 | 6.4 | 0.00 | 0.74 | 0.74 | 89 | 1015.6 |
| 20260507024502 | 7 | 272 | 4.8 | 6.4 | 0.00 | 0.74 | 0.74 | 89 | 1015.5 |
| 20260507024002 | 7 | 266 | 4.8 | 6.4 | 0.00 | 0.74 | 0.74 | 88 | 1015.9 |
| 20260507023502 | 7 | 278 | 4.8 | 6.4 | 0.00 | 0.74 | 0.74 | 88 | 1015.7 |
| 20260507023001 | 7 | 268 | 4.8 | 6.4 | 0.00 | 0.74 | 0.74 | 88 | 1015.7 |
| 20260507022502 | 7 | 285 | 4.8 | 6.4 | 0.00 | 0.74 | 0.74 | 89 | 1015.7 |
| 20260507022001 | 7 | 283 | 3.2 | 6.4 | 0.00 | 0.74 | 0.74 | 89 | 1015.7 |
| 20260507021502 | 7 | 280 | 3.2 | 4.8 | 0.00 | 0.74 | 0.74 | 90 | 1015.6 |
| 20260507021002 | 7 | 277 | 3.2 | 4.8 | 0.00 | 0.74 | 0.74 | 90 | 1015.7 |
| 20260507020502 | 7 | 249 | 3.2 | 4.8 | 0.00 | 0.74 | 0.74 | 90 | 1015.6 |
| 20260507020002 | 7 | 263 | 3.2 | 4.8 | 0.00 | 0.74 | 0.74 | 90 | 1015.7 |
| 20260507015501 | 8 | 272 | 4.8 | 4.8 | 0.00 | 0.74 | 0.74 | 89 | 1015.5 |
| 20260507015002 | 8 | 269 | 4.8 | 6.4 | 0.00 | 0.74 | 0.74 | 88 | 1015.5 |
| 20260507014501 | 8 | 273 | 3.2 | 4.8 | 0.00 | 0.74 | 0.74 | 87 | 1015.3 |
| 20260507014002 | 8 | 268 | 4.8 | 6.4 | 0.00 | 0.74 | 0.74 | 88 | 1015.4 |
| 20260507013502 | 8 | 286 | 4.8 | 4.8 | 0.00 | 0.74 | 0.74 | 88 | 1015.7 |
| 20260507013002 | 8 | 275 | 3.2 | 4.8 | 0.00 | 0.74 | 0.74 | 88 | 1015.2 |
| 20260507012502 | 8 | 271 | 4.8 | 4.8 | 0.00 | 0.74 | 0.74 | 88 | 1015.5 |
| 20260507012001 | 8 | 265 | 3.2 | 4.8 | 0.00 | 0.74 | 0.74 | 87 | 1015.2 |
| 20260507011502 | 8 | 255 | 4.8 | 4.8 | 0.00 | 0.74 | 0.74 | 85 | 1015.2 |
| 20260507011002 | 8 | 263 | 3.2 | 4.8 | 0.00 | 0.74 | 0.74 | 85 | 1014.7 |
| 20260507010501 | 8 | 271 | 3.2 | 3.2 | 0.00 | 0.74 | 0.74 | 85 | 1014.8 |
| 20260507010002 | 8 | 262 | 3.2 | 4.8 | 0.00 | 0.74 | 0.74 | 86 | 1014.8 |
| 20260507005501 | 8 | 253 | 3.2 | 4.8 | 0.00 | 0.74 | 0.74 | 86 | 1014.8 |
| 20260507005002 | 8 | 278 | 0.0 | 3.2 | 0.00 | 0.74 | 0.74 | 87 | 1015.0 |
| 20260507004501 | 8 | 221 | 3.2 | 4.8 | 0.00 | 0.74 | 0.74 | 86 | 1015.1 |
| 20260507004002 | 8 | 249 | 3.2 | 3.2 | 0.00 | 0.74 | 0.74 | 85 | 1014.9 |
| 20260507003501 | 8 | 227 | 3.2 | 4.8 | 0.00 | 0.74 | 0.74 | 84 | 1014.7 |
| 20260507003001 | 8 | 269 | 4.8 | 4.8 | 0.00 | 0.74 | 0.74 | 83 | 1014.9 |
| 20260507002502 | 8 | 238 | 3.2 | 4.8 | 0.00 | 0.74 | 0.74 | 83 | 1015.0 |
| 20260507002001 | 8 | 241 | 3.2 | 4.8 | 0.00 | 0.74 | 0.74 | 81 | 1015.0 |
| 20260507001501 | 8 | 260 | 4.8 | 4.8 | 0.00 | 0.74 | 0.74 | 80 | 1014.8 |
| 20260507001002 | 9 | 263 | 4.8 | 6.4 | 0.00 | 0.74 | 0.74 | 77 | 1014.8 |
| 20260507000502 | 10 | 253 | 4.8 | 8.0 | 0.00 | 0.74 | 0.74 | 76 | 1014.8 |
| 20260507000003 | 10 | 238 | 4.8 | 6.4 | 0.00 | 0.74 | 0.74 | 76 | 1014.9 |
| 20260506235502 | 10 | 255 | 4.8 | 9.7 | 0.00 | 0.74 | 0.74 | 73 | 1014.7 |
| 20260506235002 | 11 | 247 | 6.4 | 9.7 | 0.00 | 0.74 | 0.74 | 72 | 1014.7 |
| 20260506234502 | 11 | 261 | 6.4 | 11.3 | 0.00 | 0.74 | 0.74 | 68 | 1015.0 |
| 20260506234002 | 11 | 244 | 11.3 | 17.7 | 0.00 | 0.74 | 0.74 | 64 | 1014.8 |
| 20260506233502 | 11 | 239 | 6.4 | 12.9 | 0.00 | 0.74 | 0.74 | 65 | 1014.8 |
| 20260506233001 | 11 | 239 | 14.5 | 17.7 | 0.00 | 0.74 | 0.74 | 62 | 1014.8 |
| 20260506232502 | 12 | 240 | 8.0 | 16.1 | 0.00 | 0.74 | 0.74 | 60 | 1014.9 |
| 20260506232002 | 12 | 213 | 9.7 | 17.7 | 0.00 | 0.74 | 0.74 | 56 | 1015.0 |
| 20260506231502 | 13 | 248 | 12.9 | 16.1 | 0.00 | 0.74 | 0.74 | 58 | 1015.0 |
| 20260506231002 | 13 | 243 | 12.9 | 20.9 | 0.00 | 0.74 | 0.74 | 57 | 1015.1 |
| 20260506230502 | 12 | 239 | 20.9 | 20.9 | 0.00 | 0.74 | 0.74 | 60 | 1015.1 |
| 20260506230002 | 12 | 249 | 17.7 | 22.5 | 0.00 | 0.74 | 0.74 | 59 | 1015.0 |
| 20260506225501 | 12 | 245 | 14.5 | 20.9 | 0.00 | 0.74 | 0.74 | 59 | 1015.1 |
| 20260506225002 | 12 | 239 | 12.9 | 20.9 | 0.00 | 0.74 | 0.74 | 62 | 1015.1 |
| 20260506224501 | 12 | 252 | 14.5 | 19.3 | 0.00 | 0.74 | 0.74 | 62 | 1015.2 |
| 20260506224002 | 12 | 248 | 12.9 | 19.3 | 0.00 | 0.74 | 0.74 | 61 | 1015.2 |
| 20260506223502 | 12 | 242 | 20.9 | 22.5 | 0.00 | 0.74 | 0.74 | 62 | 1015.2 |
| 20260506223004 | 11 | 255 | 14.5 | 22.5 | 0.00 | 0.74 | 0.74 | 58 | 1015.2 |
| 20260506222501 | 12 | 277 | 19.3 | 22.5 | 0.00 | 0.74 | 0.74 | 60 | 1015.2 |
| 20260506222002 | 11 | 267 | 20.9 | 25.7 | 0.00 | 0.74 | 0.74 | 58 | 1015.0 |
| 20260506221502 | 11 | 266 | 12.9 | 24.1 | 0.00 | 0.74 | 0.74 | 60 | 1015.0 |
| 20260506221002 | 11 | 269 | 17.7 | 20.9 | 0.00 | 0.74 | 0.74 | 58 | 1015.1 |
| 20260506220502 | 11 | 273 | 12.9 | 20.9 | 0.00 | 0.74 | 0.74 | 59 | 1014.9 |
| 20260506220002 | 11 | 259 | 17.7 | 20.9 | 0.00 | 0.74 | 0.74 | 60 | 1015.0 |
| 20260506215502 | 11 | 277 | 16.1 | 19.3 | 0.00 | 0.74 | 0.74 | 58 | 1015.0 |
| 20260506215001 | 11 | 283 | 14.5 | 24.1 | 0.00 | 0.74 | 0.74 | 55 | 1014.9 |
| 20260506214502 | 12 | 319 | 8.0 | 19.3 | 0.00 | 0.74 | 0.74 | 56 | 1014.9 |
| 20260506214002 | 12 | 324 | 8.0 | 20.9 | 0.00 | 0.74 | 0.74 | 55 | 1015.1 |
| 20260506213502 | 12 | 284 | 12.9 | 24.1 | 0.00 | 0.74 | 0.74 | 57 | 1015.1 |
| 20260506213002 | 12 | 274 | 17.7 | 20.9 | 0.00 | 0.74 | 0.74 | 59 | 1015.0 |
| 20260506212502 | 12 | 271 | 17.7 | 19.3 | 0.00 | 0.74 | 0.74 | 59 | 1014.9 |
| 20260506212002 | 12 | 282 | 19.3 | 24.1 | 0.00 | 0.74 | 0.74 | 56 | 1015.0 |
| 20260506211501 | 12 | 278 | 14.5 | 20.9 | 0.00 | 0.74 | 0.74 | 56 | 1015.0 |
| 20260506211002 | 11 | 281 | 11.3 | 19.3 | 0.00 | 0.74 | 0.74 | 56 | 1014.9 |
| 20260506210501 | 12 | 287 | 14.5 | 17.7 | 0.00 | 0.74 | 0.74 | 61 | 1014.6 |
| 20260506210002 | 12 | 275 | 11.3 | 20.9 | 0.00 | 0.74 | 0.74 | 55 | 1014.8 |
| 20260506205502 | 11 | 285 | 9.7 | 20.9 | 0.00 | 0.74 | 0.74 | 55 | 1014.8 |
| 20260506205002 | 11 | 275 | 12.9 | 20.9 | 0.00 | 0.74 | 0.74 | 55 | 1014.7 |
| 20260506204502 | 12 | 284 | 11.3 | 19.3 | 0.00 | 0.74 | 0.74 | 58 | 1014.8 |
| 20260506204001 | 12 | 283 | 12.9 | 19.3 | 0.00 | 0.74 | 0.74 | 57 | 1014.8 |
| 20260506203502 | 12 | 286 | 16.1 | 16.1 | 0.00 | 0.74 | 0.74 | 58 | 1014.8 |
| 20260506203002 | 12 | 308 | 11.3 | 25.7 | 0.00 | 0.74 | 0.74 | 51 | 1014.7 |
| 20260506202502 | 12 | 272 | 14.5 | 25.7 | 0.00 | 0.74 | 0.74 | 56 | 1014.6 |
| 20260506202002 | 12 | 248 | 12.9 | 20.9 | 0.00 | 0.74 | 0.74 | 56 | 1014.9 |
| 20260506201502 | 12 | 274 | 17.7 | 24.1 | 0.00 | 0.74 | 0.74 | 57 | 1014.9 |
| 20260506201002 | 12 | 286 | 16.1 | 20.9 | 0.00 | 0.74 | 0.74 | 58 | 1014.9 |
| 20260506200502 | 12 | 284 | 11.3 | 24.1 | 0.00 | 0.74 | 0.74 | 55 | 1015.0 |
| 20260506200002 | 12 | 286 | 16.1 | 19.3 | 0.00 | 0.74 | 0.74 | 52 | 1015.0 |
| 20260506195501 | 12 | 291 | 16.1 | 25.7 | 0.00 | 0.74 | 0.74 | 54 | 1014.8 |
| 20260506195002 | 12 | 348 | 12.9 | 20.9 | 0.00 | 0.74 | 0.74 | 54 | 1014.8 |
| 20260506194501 | 12 | 317 | 6.4 | 20.9 | 0.00 | 0.74 | 0.74 | 53 | 1014.9 |
| 20260506194002 | 12 | 292 | 9.7 | 29.0 | 0.00 | 0.74 | 0.74 | 51 | 1014.7 |
| 20260506193501 | 12 | 275 | 14.5 | 24.1 | 0.00 | 0.74 | 0.74 | 54 | 1014.7 |
| 20260506193002 | 12 | 332 | 14.5 | 29.0 | 0.00 | 0.74 | 0.74 | 53 | 1014.7 |
| 20260506192502 | 12 | 261 | 19.3 | 22.5 | 0.00 | 0.74 | 0.74 | 59 | 1014.8 |
| 20260506192001 | 12 | 290 | 17.7 | 22.5 | 0.00 | 0.74 | 0.74 | 59 | 1014.7 |
| 20260506191502 | 12 | 284 | 19.3 | 20.9 | 0.00 | 0.74 | 0.74 | 56 | 1014.6 |
| 20260506191002 | 12 | 230 | 8.0 | 12.9 | 0.00 | 0.74 | 0.74 | 54 | 1014.6 |
| 20260506190502 | 12 | 289 | 6.4 | 14.5 | 0.00 | 0.74 | 0.74 | 53 | 1014.9 |
| 20260506190003 | 12 | 265 | 19.3 | 24.1 | 0.00 | 0.74 | 0.74 | 58 | 1014.9 |
| 20260506185502 | 13 | 294 | 8.0 | 19.3 | 0.00 | 0.74 | 0.74 | 52 | 1014.8 |
| 20260506185002 | 12 | 313 | 12.9 | 22.5 | 0.00 | 0.74 | 0.74 | 52 | 1015.1 |
| 20260506184502 | 13 | 289 | 17.7 | 22.5 | 0.00 | 0.74 | 0.74 | 58 | 1015.0 |
| 20260506184001 | 12 | 279 | 9.7 | 16.1 | 0.00 | 0.74 | 0.74 | 53 | 1014.8 |
| 20260506183503 | 12 | 290 | 6.4 | 17.7 | 0.00 | 0.74 | 0.74 | 54 | 1014.9 |
| 20260506183002 | 12 | 294 | 6.4 | 14.5 | 0.00 | 0.74 | 0.74 | 53 | 1015.1 |
| 20260506182502 | 12 | 312 | 9.7 | 19.3 | 0.00 | 0.74 | 0.74 | 50 | 1015.1 |
| 20260506182002 | 12 | 331 | 8.0 | 33.8 | 0.00 | 0.74 | 0.74 | 53 | 1014.8 |
| 20260506181501 | 12 | 277 | 12.9 | 20.9 | 0.00 | 0.74 | 0.74 | 51 | 1014.9 |
| 20260506181002 | 12 | 290 | 16.1 | 27.4 | 0.00 | 0.74 | 0.74 | 51 | 1015.0 |
| 20260506180501 | 12 | 251 | 4.8 | 12.9 | 0.00 | 0.74 | 0.74 | 57 | 1014.8 |
| 20260506180002 | 12 | 274 | 8.0 | 17.7 | 0.00 | 0.74 | 0.74 | 50 | 1014.7 |
| 20260506175502 | 12 | 254 | 14.5 | 22.5 | 0.00 | 0.74 | 0.74 | 56 | 1014.7 |
| 20260506175002 | 12 | 275 | 14.5 | 19.3 | 0.00 | 0.74 | 0.74 | 55 | 1014.8 |
| 20260506174502 | 12 | 275 | 20.9 | 20.9 | 0.00 | 0.74 | 0.74 | 54 | 1015.0 |
| 20260506174001 | 12 | 159 | 3.2 | 8.0 | 0.00 | 0.74 | 0.74 | 58 | 1014.8 |
| 20260506173502 | 12 | 313 | 6.4 | 16.1 | 0.00 | 0.74 | 0.74 | 53 | 1014.9 |
| 20260506173001 | 12 | 341 | 8.0 | 12.9 | 0.00 | 0.74 | 0.74 | 54 | 1015.0 |
| 20260506172502 | 12 | 224 | 9.7 | 17.7 | 0.00 | 0.74 | 0.74 | 55 | 1014.9 |
| 20260506172001 | 12 | 239 | 12.9 | 17.7 | 0.00 | 0.74 | 0.74 | 56 | 1014.9 |
| 20260506171502 | 12 | 297 | 16.1 | 24.1 | 0.00 | 0.74 | 0.74 | 60 | 1014.9 |
| 20260506171001 | 12 | 212 | 6.4 | 16.1 | 0.00 | 0.74 | 0.74 | 56 | 1014.9 |
| 20260506170502 | 11 | 283 | 3.2 | 12.9 | 0.00 | 0.74 | 0.74 | 59 | 1015.1 |
| 20260506170002 | 11 | 324 | 9.7 | 17.7 | 0.00 | 0.74 | 0.74 | 57 | 1015.1 |
| 20260506165502 | 11 | 347 | 6.4 | 17.7 | 0.00 | 0.74 | 0.74 | 54 | 1015.2 |
| 20260506165002 | 11 | 267 | 6.4 | 14.5 | 0.00 | 0.74 | 0.74 | 57 | 1015.2 |
| 20260506164502 | 11 | 273 | 8.0 | 12.9 | 0.00 | 0.74 | 0.74 | 59 | 1015.1 |
| 20260506164001 | 11 | 278 | 9.7 | 16.1 | 0.00 | 0.74 | 0.74 | 58 | 1015.1 |
| 20260506163502 | 11 | 315 | 8.0 | 9.7 | 0.00 | 0.74 | 0.74 | 61 | 1015.2 |
| 20260506163002 | 11 | 349 | 4.8 | 14.5 | 0.00 | 0.74 | 0.74 | 57 | 1015.4 |
| 20260506162501 | 12 | 285 | 11.3 | 12.9 | 0.00 | 0.74 | 0.74 | 57 | 1015.2 |
| 20260506162002 | 11 | 313 | 8.0 | 16.1 | 0.00 | 0.74 | 0.74 | 57 | 1015.2 |
| 20260506161502 | 11 | 311 | 20.9 | 25.7 | 0.00 | 0.74 | 0.74 | 55 | 1015.0 |
| 20260506161002 | 12 | 294 | 17.7 | 17.7 | 0.00 | 0.74 | 0.74 | 54 | 1015.0 |
| 20260506160502 | 12 | 288 | 6.4 | 17.7 | 0.00 | 0.74 | 0.74 | 64 | 1015.0 |
| 20260506160002 | 11 | 288 | 6.4 | 17.7 | 0.00 | 0.74 | 0.74 | 55 | 1015.3 |
| 20260506155502 | 11 | 290 | 14.5 | 19.3 | 0.00 | 0.74 | 0.74 | 55 | 1015.3 |
| 20260506155002 | 12 | 315 | 6.4 | 14.5 | 0.00 | 0.74 | 0.74 | 60 | 1015.1 |
| 20260506154501 | 11 | 26 | 3.2 | 12.9 | 0.00 | 0.74 | 0.74 | 56 | 1015.1 |
| 20260506154001 | 11 | 21 | 12.9 | 24.1 | 0.00 | 0.74 | 0.74 | 56 | 1015.1 |
| 20260506153502 | 12 | 1 | 9.7 | 24.1 | 0.00 | 0.74 | 0.74 | 61 | 1014.8 |
| 20260506153002 | 12 | 313 | 8.0 | 14.5 | 0.00 | 0.74 | 0.74 | 58 | 1014.9 |
| 20260506152502 | 12 | 317 | 12.9 | 19.3 | 0.00 | 0.74 | 0.74 | 58 | 1014.7 |
| 20260506152001 | 12 | 333 | 12.9 | 19.3 | 0.00 | 0.74 | 0.74 | 57 | 1014.9 |
| 20260506151502 | 11 | 323 | 9.7 | 20.9 | 0.00 | 0.74 | 0.74 | 61 | 1014.9 |
| 20260506151001 | 11 | 15 | 14.5 | 20.9 | 0.00 | 0.74 | 0.74 | 60 | 1014.7 |
| 20260506150502 | 11 | 21 | 6.4 | 14.5 | 0.00 | 0.74 | 0.74 | 65 | 1014.6 |
| 20260506150003 | 12 | 330 | 19.3 | 22.5 | 0.00 | 0.74 | 0.74 | 62 | 1014.6 |
| 20260506145501 | 11 | 24 | 20.9 | 24.1 | 0.00 | 0.74 | 0.74 | 64 | 1014.5 |
| 20260506145002 | 11 | 18 | 20.9 | 20.9 | 0.00 | 0.74 | 0.74 | 60 | 1014.5 |
| 20260506144502 | 11 | 334 | 12.9 | 27.4 | 0.00 | 0.74 | 0.74 | 60 | 1014.2 |
| 20260506144001 | 11 | 5 | 14.5 | 24.1 | 0.00 | 0.74 | 0.74 | 59 | 1014.3 |
| 20260506143502 | 11 | 22 | 14.5 | 19.3 | 0.00 | 0.74 | 0.74 | 64 | 1014.2 |